DW9493 Weather Reports


Display with metric or nautical units.
time (UTC)temp
F
wind
direction
speed
MPH
gust
MPH
rain 1hr
in
rain 24hr
in
rain mn
in
humidity
%
barometer
mb
20260504045831 45 353 0.0 1.0 0.00 0.00 0.00 47 1017.2
20260504044820 45 353 0.0 1.0 0.00 0.00 0.00 46 1017.3
20260504043818 46 274 0.0 1.0 0.00 0.00 0.00 47 1017.4
20260504042818 47 277 0.0 1.0 0.00 0.00 0.00 46 1017.4
20260504041819 49 277 0.0 1.0 0.00 0.00 0.00 43 1017.6
20260504040812 50 250 0.0 1.0 0.00 0.00 0.00 39 1017.6
20260504040247 51 266 1.0 3.0 0.00 0.00 0.00 38 1017.6
20260504034801 51 249 2.0 6.0 0.00 0.00 0.00 35 1017.7
20260504033802 51 285 0.0 2.0 0.00 0.00 0.00 36 1017.7
20260504032801 52 224 0.0 1.0 0.00 0.00 0.00 33 1017.6
20260504032236 52 268 0.0 3.0 0.00 0.00 0.00 35 1017.7
20260504030757 53 262 1.0 2.0 0.00 0.00 0.00 32 1017.7
20260504030235 53 271 1.0 2.0 0.00 0.00 0.00 34 1017.6
20260504024758 54 248 1.0 7.0 0.00 0.00 0.00 30 1017.6
20260504023759 53 250 3.0 7.0 0.00 0.00 0.00 33 1017.4
20260504022743 54 208 6.0 10.0 0.00 0.00 0.00 34 1017.6
20260504021727 54 231 6.0 10.0 0.00 0.00 0.00 34 1017.3
20260504020724 55 249 6.0 14.0 0.00 0.00 0.00 33 1017.4
20260504015723 55 301 4.0 11.0 0.00 0.00 0.00 31 1017.3
20260504014721 56 231 1.0 7.0 0.00 0.00 0.00 31 1017.3
20260504013723 56 242 1.0 5.0 0.00 0.00 0.00 30 1017.3
20260504012722 56 328 0.0 2.0 0.00 0.00 0.00 30 1017.2
20260504011714 56 72 1.0 5.0 0.00 0.00 0.00 30 1017.1
20260504010711 57 92 3.0 7.0 0.00 0.00 0.00 29 1017.2
20260504005710 58 142 2.0 6.0 0.00 0.00 0.00 27 1017.2
20260504004711 59 103 1.0 7.0 0.00 0.00 0.00 27 1017.1
20260504003703 59 257 2.0 9.0 0.00 0.00 0.00 25 1016.9
20260504003615 60 285 3.0 8.0 0.00 0.00 0.00 24 1016.9
20260504001700 60 313 4.0 12.0 0.00 0.00 0.00 23 1016.8
20260504000700 60 263 5.0 12.0 0.00 0.00 0.00 23 1016.6
20260503235702 60 295 7.0 23.0 0.00 0.00 0.00 25 1016.7
20260503234656 60 243 5.0 14.0 0.00 0.00 0.00 25 1016.9
20260503233653 60 284 8.0 20.0 0.00 0.00 0.00 25 1017.1
20260503232654 61 331 7.0 23.0 0.00 0.00 0.00 24 1016.9
20260503231651 61 221 6.0 17.0 0.00 0.00 0.00 19 1016.8
20260503230653 62 212 4.0 10.0 0.00 0.00 0.00 20 1016.6
20260503230611 62 255 4.0 13.0 0.00 0.00 0.00 21 1016.8
20260503224651 62 245 5.0 11.0 0.00 0.00 0.00 20 1016.9
20260503223649 61 242 3.0 7.0 0.00 0.00 0.00 23 1016.9
20260503222647 61 201 3.0 7.0 0.00 0.00 0.00 21 1016.9
20260503221647 61 252 3.0 7.0 0.00 0.00 0.00 23 1017.2
20260503220648 61 219 4.0 10.0 0.00 0.00 0.00 23 1017.4
20260503215644 61 194 0.0 7.0 0.00 0.00 0.00 22 1017.6
20260503214644 60 250 2.0 8.0 0.00 0.00 0.00 23 1017.7
20260503213636 61 271 1.0 6.0 0.00 0.00 0.00 20 1017.8
20260503213114 61 319 1.0 8.0 0.00 0.00 0.00 18 1017.9
20260503211635 62 139 4.0 10.0 0.00 0.00 0.00 18 1018.1
20260503210628 61 232 3.0 11.0 0.00 0.00 0.00 20 1018.2
20260503210116 62 238 3.0 16.0 0.00 0.00 0.00 20 1018.4
20260503204614 61 224 4.0 14.0 0.00 0.00 0.00 19 1018.6
20260503203612 61 316 3.0 12.0 0.00 0.00 0.00 20 1018.7
20260503202612 60 285 5.0 14.0 0.00 0.00 0.00 20 1018.7
20260503201612 60 314 5.0 19.0 0.00 0.00 0.00 19 1019.0
20260503200609 61 302 5.0 14.0 0.00 0.00 0.00 20 1019.0
20260503200039 61 278 3.0 11.0 0.00 0.00 0.00 20 1019.0
20260503194607 61 240 3.0 8.0 0.00 0.00 0.00 18 1019.1
20260503193604 61 256 1.0 3.0 0.00 0.00 0.00 18 1019.1
20260503192606 60 245 5.0 10.0 0.00 0.00 0.00 18 1019.5
20260503191603 60 242 2.0 6.0 0.00 0.00 0.00 21 1019.3
20260503190602 61 250 2.0 7.0 0.00 0.00 0.00 20 1019.6
20260503185559 60 219 6.0 12.0 0.00 0.00 0.00 17 1019.6
20260503184559 62 318 3.0 10.0 0.00 0.00 0.00 20 1019.7
20260503183558 62 256 5.0 9.0 0.00 0.00 0.00 20 1020.0
20260503182557 60 195 4.0 8.0 0.00 0.00 0.00 20 1020.2
20260503182037 60 259 2.0 8.0 0.00 0.00 0.00 21 1020.3
20260503180556 60 249 4.0 13.0 0.00 0.00 0.00 21 1020.3
20260503175550 60 328 1.0 5.0 0.00 0.00 0.00 23 1020.6
20260503174551 59 274 3.0 8.0 0.00 0.00 0.00 24 1020.8
20260503173550 58 235 3.0 13.0 0.00 0.00 0.00 23 1021.0
20260503172548 58 304 4.0 15.0 0.00 0.00 0.00 23 1021.1
20260503171547 57 298 4.0 12.0 0.00 0.00 0.00 24 1021.3
20260503170544 57 327 3.0 9.0 0.00 0.00 0.00 24 1021.3
20260503150523 51 322 4.0 9.0 0.00 0.00 0.00 33 1021.6
20260503130505 43 269 0.0 1.0 0.00 0.00 0.00 49 1022.2
20260503110448 44 215 1.0 4.0 0.00 0.00 0.00 40 1021.5
20260503090426 46 238 1.0 3.0 0.00 0.00 0.00 40 1021.8
20260503081413 41 277 0.0 1.0 0.00 0.00 0.00 50 1022.2
20260503080412 41 270 0.0 2.0 0.00 0.00 0.00 48 1022.2
20260503072853 42 269 2.0 4.0 0.00 0.00 0.00 44 1022.6
20260503071408 42 298 1.0 4.0 0.00 0.00 0.00 43 1022.7
20260503070405 42 255 0.0 3.0 0.00 0.00 0.00 42 1022.7